Time,TemperatureF,DewpointF,PressureIn,WindDirection,WindDirectionDegrees,WindSpeedMPH,WindSpeedGustMPH,Humidity,HourlyPrecipIn,Conditions,Clouds,dailyrainin,SoftwareType,DateUTC
2013-06-23 00:02:00,63.9,62.0,29.99,North,-999,-999.0,-999.0,93,0.00,,,0.00,tws,2013-06-23 04:02:00,
2013-06-23 00:07:00,63.8,61.9,29.99,North,-999,-999.0,-999.0,93,0.00,,,0.00,tws,2013-06-23 04:07:00,
2013-06-23 00:12:00,63.7,62.1,29.99,North,-999,-999.0,-999.0,94,0.00,,,0.00,tws,2013-06-23 04:12:00,
2013-06-23 00:17:00,63.7,62.0,29.99,North,-999,-999.0,-999.0,94,0.00,,,0.00,tws,2013-06-23 04:17:00,
2013-06-23 00:22:00,63.7,62.2,29.99,North,-999,-999.0,-999.0,94,0.00,,,0.00,tws,2013-06-23 04:22:00,
2013-06-23 00:27:00,63.7,62.1,29.99,North,-999,-999.0,-999.0,94,0.00,,,0.00,tws,2013-06-23 04:27:00,
2013-06-23 00:32:00,63.6,62.0,29.99,North,-999,-999.0,-999.0,94,0.00,,,0.00,tws,2013-06-23 04:32:00,
2013-06-23 00:37:00,63.5,62.0,29.99,North,-999,-999.0,-999.0,94,0.00,,,0.00,tws,2013-06-23 04:37:00,
2013-06-23 00:42:00,63.3,62.1,29.99,North,-999,-999.0,-999.0,95,0.00,,,0.00,tws,2013-06-23 04:42:00,
2013-06-23 00:47:00,63.2,61.8,29.99,North,-999,-999.0,-999.0,95,0.00,,,0.00,tws,2013-06-23 04:47:00,
2013-06-23 00:52:00,63.0,61.7,29.99,North,-999,-999.0,-999.0,95,0.00,,,0.00,tws,2013-06-23 04:52:00,
2013-06-23 00:57:00,63.0,61.7,29.99,North,-999,-999.0,-999.0,95,0.00,,,0.00,tws,2013-06-23 04:57:00,
2013-06-23 01:02:00,62.9,61.7,29.99,North,-999,-999.0,-999.0,95,0.00,,,0.00,tws,2013-06-23 05:02:00,
2013-06-23 01:07:00,62.8,61.6,29.99,North,-999,-999.0,-999.0,95,0.00,,,0.00,tws,2013-06-23 05:07:00,
2013-06-23 01:12:00,62.8,61.6,29.99,North,-999,-999.0,-999.0,95,0.00,,,0.00,tws,2013-06-23 05:12:00,
2013-06-23 01:17:00,62.7,61.6,29.99,North,-999,-999.0,-999.0,95,0.00,,,0.00,tws,2013-06-23 05:17:00,
2013-06-23 01:22:00,62.6,61.5,29.99,North,-999,-999.0,-999.0,95,0.00,,,0.00,tws,2013-06-23 05:22:00,
2013-06-23 01:27:00,62.7,61.6,29.99,North,-999,-999.0,-999.0,96,0.00,,,0.00,tws,2013-06-23 05:27:00,
2013-06-23 01:32:00,62.7,61.6,29.98,North,-999,-999.0,-999.0,96,0.00,,,0.00,tws,2013-06-23 05:32:00,
2013-06-23 01:37:00,62.7,61.6,29.97,North,-999,-999.0,-999.0,96,0.00,,,0.00,tws,2013-06-23 05:37:00,
2013-06-23 01:42:00,62.6,61.6,29.98,North,-999,-999.0,-999.0,96,0.00,,,0.00,tws,2013-06-23 05:42:00,
2013-06-23 01:47:00,62.5,61.4,29.98,North,-999,-999.0,-999.0,96,0.00,,,0.00,tws,2013-06-23 05:47:00,
2013-06-23 01:52:00,62.4,61.3,29.98,North,-999,-999.0,-999.0,96,0.00,,,0.00,tws,2013-06-23 05:52:00,
2013-06-23 01:57:00,62.3,61.3,29.98,North,-999,-999.0,-999.0,96,0.00,,,0.00,tws,2013-06-23 05:57:00,
2013-06-23 02:02:00,62.2,61.1,29.98,North,-999,-999.0,-999.0,96,0.00,,,0.00,tws,2013-06-23 06:02:00,
2013-06-23 02:07:00,62.2,61.1,29.98,North,-999,-999.0,-999.0,96,0.00,,,0.00,tws,2013-06-23 06:07:00,
2013-06-23 02:12:00,62.1,61.1,29.97,North,-999,-999.0,-999.0,96,0.00,,,0.00,tws,2013-06-23 06:12:00,
2013-06-23 02:17:00,62.0,61.0,29.97,North,-999,-999.0,-999.0,96,0.00,,,0.00,tws,2013-06-23 06:17:00,
2013-06-23 02:22:00,62.0,61.0,29.97,North,-999,-999.0,-999.0,96,0.00,,,0.00,tws,2013-06-23 06:22:00,
2013-06-23 02:27:00,61.9,60.9,29.97,North,-999,-999.0,-999.0,96,0.00,,,0.00,tws,2013-06-23 06:27:00,
2013-06-23 02:32:00,61.8,60.8,29.97,North,-999,-999.0,-999.0,96,0.00,,,0.00,tws,2013-06-23 06:32:00,
2013-06-23 02:37:00,61.7,60.7,29.97,North,-999,-999.0,-999.0,96,0.00,,,0.00,tws,2013-06-23 06:37:00,
2013-06-23 02:47:00,61.6,60.7,29.97,North,-999,-999.0,-999.0,96,0.00,,,0.00,tws,2013-06-23 06:47:00,
2013-06-23 02:52:00,61.6,60.6,29.97,North,-999,-999.0,-999.0,96,0.00,,,0.00,tws,2013-06-23 06:52:00,
2013-06-23 02:57:00,61.5,60.6,29.96,North,-999,-999.0,-999.0,96,0.00,,,0.00,tws,2013-06-23 06:57:00,
2013-06-23 03:02:00,61.3,60.4,29.96,North,-999,-999.0,-999.0,96,0.00,,,0.00,tws,2013-06-23 07:02:00,
2013-06-23 03:07:00,61.2,60.3,29.96,North,-999,-999.0,-999.0,96,0.00,,,0.00,tws,2013-06-23 07:07:00,
2013-06-23 03:12:00,61.1,60.2,29.96,North,-999,-999.0,-999.0,96,0.00,,,0.00,tws,2013-06-23 07:12:00,
2013-06-23 03:17:00,61.0,60.2,29.96,North,-999,-999.0,-999.0,97,0.00,,,0.00,tws,2013-06-23 07:17:00,
2013-06-23 03:22:00,61.0,60.2,29.96,North,-999,-999.0,-999.0,97,0.00,,,0.00,tws,2013-06-23 07:22:00,
2013-06-23 03:27:00,61.0,60.1,29.96,North,-999,-999.0,-999.0,97,0.00,,,0.00,tws,2013-06-23 07:27:00,
2013-06-23 03:32:00,60.8,60.0,29.96,North,-999,-999.0,-999.0,97,0.00,,,0.00,tws,2013-06-23 07:32:00,
2013-06-23 03:37:00,60.7,59.9,29.96,North,-999,-999.0,-999.0,96,0.00,,,0.00,tws,2013-06-23 07:37:00,
2013-06-23 03:42:00,60.7,59.8,29.96,North,-999,-999.0,-999.0,96,0.00,,,0.00,tws,2013-06-23 07:42:00,
2013-06-23 03:47:00,60.6,59.8,29.96,North,-999,-999.0,-999.0,97,0.00,,,0.00,tws,2013-06-23 07:47:00,
2013-06-23 03:57:00,60.4,59.6,29.96,North,-999,-999.0,-999.0,97,0.00,,,0.00,tws,2013-06-23 07:57:00,
2013-06-23 04:02:00,60.2,59.4,29.95,North,-999,-999.0,-999.0,97,0.00,,,0.00,tws,2013-06-23 08:02:00,
2013-06-23 04:07:00,60.1,59.3,29.96,North,-999,-999.0,-999.0,97,0.00,,,0.00,tws,2013-06-23 08:07:00,
2013-06-23 04:12:00,60.1,59.3,29.96,North,-999,-999.0,-999.0,97,0.00,,,0.00,tws,2013-06-23 08:12:00,
2013-06-23 04:17:00,60.1,59.3,29.95,North,-999,-999.0,-999.0,97,0.00,,,0.00,tws,2013-06-23 08:17:00,
2013-06-23 04:22:00,60.1,59.3,29.95,North,-999,-999.0,-999.0,97,0.00,,,0.00,tws,2013-06-23 08:22:00,
2013-06-23 04:27:00,60.0,59.2,29.95,North,-999,-999.0,-999.0,97,0.00,,,0.00,tws,2013-06-23 08:27:00,
2013-06-23 04:32:00,60.0,59.2,29.96,North,-999,-999.0,-999.0,97,0.00,,,0.00,tws,2013-06-23 08:32:00,
2013-06-23 04:37:00,60.0,59.2,29.95,North,-999,-999.0,-999.0,97,0.00,,,0.00,tws,2013-06-23 08:37:00,
2013-06-23 04:42:00,60.1,59.3,29.96,North,-999,-999.0,-999.0,97,0.00,,,0.00,tws,2013-06-23 08:42:00,
2013-06-23 04:47:00,60.1,59.3,29.96,North,-999,-999.0,-999.0,97,0.00,,,0.00,tws,2013-06-23 08:47:00,
2013-06-23 04:52:00,59.9,59.1,29.95,North,-999,-999.0,-999.0,97,0.00,,,0.00,tws,2013-06-23 08:52:00,
2013-06-23 04:57:00,59.8,59.0,29.96,North,-999,-999.0,-999.0,97,0.00,,,0.00,tws,2013-06-23 08:57:00,
2013-06-23 05:02:00,59.7,58.9,29.95,North,-999,-999.0,-999.0,97,0.00,,,0.00,tws,2013-06-23 09:02:00,
2013-06-23 05:07:00,59.6,58.8,29.96,North,-999,-999.0,-999.0,97,0.00,,,0.00,tws,2013-06-23 09:07:00,
2013-06-23 05:12:00,59.5,58.8,29.96,North,-999,-999.0,-999.0,97,0.00,,,0.00,tws,2013-06-23 09:12:00,
2013-06-23 05:17:00,59.5,58.8,29.96,North,-999,-999.0,-999.0,97,0.00,,,0.00,tws,2013-06-23 09:17:00,
2013-06-23 05:22:00,59.6,58.8,29.96,North,-999,-999.0,-999.0,97,0.00,,,0.00,tws,2013-06-23 09:22:00,
2013-06-23 05:27:00,59.6,58.9,29.96,North,-999,-999.0,-999.0,97,0.00,,,0.00,tws,2013-06-23 09:27:00,
2013-06-23 05:32:00,59.6,58.8,29.96,North,-999,-999.0,-999.0,97,0.00,,,0.00,tws,2013-06-23 09:32:00,
2013-06-23 05:37:00,59.4,58.6,29.97,North,-999,-999.0,-999.0,97,0.00,,,0.00,tws,2013-06-23 09:37:00,
2013-06-23 05:42:00,59.2,58.5,29.97,North,-999,-999.0,-999.0,97,0.00,,,0.00,tws,2013-06-23 09:42:00,
2013-06-23 05:47:00,59.1,58.4,29.97,North,-999,-999.0,-999.0,97,0.00,,,0.00,tws,2013-06-23 09:47:00,
2013-06-23 05:52:00,59.1,58.4,29.97,North,-999,-999.0,-999.0,97,0.00,,,0.00,tws,2013-06-23 09:52:00,
2013-06-23 05:57:00,59.1,58.4,29.97,North,-999,-999.0,-999.0,97,0.00,,,0.00,tws,2013-06-23 09:57:00,
2013-06-23 06:02:00,59.1,58.3,29.97,North,-999,-999.0,-999.0,97,0.00,,,0.00,tws,2013-06-23 10:02:00,
2013-06-23 06:07:00,58.9,58.2,29.97,North,-999,-999.0,-999.0,97,0.00,,,0.00,tws,2013-06-23 10:07:00,
2013-06-23 06:12:00,58.8,58.1,29.97,North,-999,-999.0,-999.0,97,0.00,,,0.00,tws,2013-06-23 10:12:00,
2013-06-23 06:17:00,58.9,58.3,29.98,North,-999,-999.0,-999.0,97,0.00,,,0.00,tws,2013-06-23 10:17:00,
2013-06-23 06:22:00,58.9,58.2,29.97,North,-999,-999.0,-999.0,97,0.00,,,0.00,tws,2013-06-23 10:22:00,
2013-06-23 06:27:00,59.0,58.3,29.98,North,-999,-999.0,-999.0,97,0.00,,,0.00,tws,2013-06-23 10:27:00,
2013-06-23 06:32:00,59.0,58.3,29.98,North,-999,-999.0,-999.0,97,0.00,,,0.00,tws,2013-06-23 10:32:00,
2013-06-23 06:37:00,58.9,58.2,29.98,North,-999,-999.0,-999.0,97,0.00,,,0.00,tws,2013-06-23 10:37:00,
2013-06-23 06:42:00,58.9,58.2,29.99,North,-999,-999.0,-999.0,97,0.00,,,0.00,tws,2013-06-23 10:42:00,
2013-06-23 06:47:00,58.8,58.1,29.99,North,-999,-999.0,-999.0,97,0.00,,,0.00,tws,2013-06-23 10:47:00,
2013-06-23 06:52:00,58.8,58.1,29.99,North,-999,-999.0,-999.0,97,0.00,,,0.00,tws,2013-06-23 10:52:00,
2013-06-23 06:57:00,58.8,58.0,30.00,North,-999,-999.0,-999.0,97,0.00,,,0.00,tws,2013-06-23 10:57:00,
2013-06-23 07:02:00,58.8,58.1,30.00,North,-999,-999.0,-999.0,97,0.00,,,0.00,tws,2013-06-23 11:02:00,
2013-06-23 07:07:00,58.9,58.2,30.00,North,-999,-999.0,-999.0,97,0.00,,,0.00,tws,2013-06-23 11:07:00,
2013-06-23 07:12:00,58.9,58.3,30.00,North,-999,-999.0,-999.0,97,0.00,,,0.00,tws,2013-06-23 11:12:00,
2013-06-23 07:17:00,59.1,58.5,30.00,North,-999,-999.0,-999.0,97,0.00,,,0.00,tws,2013-06-23 11:17:00,
2013-06-23 07:22:00,59.4,58.7,30.00,North,-999,-999.0,-999.0,97,0.00,,,0.00,tws,2013-06-23 11:22:00,
2013-06-23 07:27:00,59.6,59.0,30.00,North,-999,-999.0,-999.0,97,0.00,,,0.00,tws,2013-06-23 11:27:00,
2013-06-23 07:32:00,59.9,59.2,30.00,North,-999,-999.0,-999.0,97,0.00,,,0.00,tws,2013-06-23 11:32:00,
2013-06-23 07:37:00,60.0,59.4,30.00,North,-999,-999.0,-999.0,97,0.00,,,0.00,tws,2013-06-23 11:37:00,
2013-06-23 07:42:00,60.3,59.7,30.00,North,-999,-999.0,-999.0,97,0.00,,,0.00,tws,2013-06-23 11:42:00,
2013-06-23 07:47:00,60.6,59.9,30.00,North,-999,-999.0,-999.0,97,0.00,,,0.00,tws,2013-06-23 11:47:00,
2013-06-23 07:52:00,61.0,60.4,30.00,North,-999,-999.0,-999.0,97,0.00,,,0.00,tws,2013-06-23 11:52:00,
2013-06-23 07:57:00,61.5,60.8,30.00,North,-999,-999.0,-999.0,97,0.00,,,0.00,tws,2013-06-23 11:57:00,
2013-06-23 08:02:00,61.9,61.2,30.01,North,-999,-999.0,-999.0,97,0.00,,,0.00,tws,2013-06-23 12:02:00,
2013-06-23 08:07:00,62.3,61.6,30.01,North,-999,-999.0,-999.0,97,0.00,,,0.00,tws,2013-06-23 12:07:00,
2013-06-23 08:12:00,62.7,62.0,30.01,North,-999,-999.0,-999.0,97,0.00,,,0.00,tws,2013-06-23 12:12:00,
2013-06-23 08:17:00,63.3,62.6,30.01,North,-999,-999.0,-999.0,97,0.00,,,0.00,tws,2013-06-23 12:17:00,
2013-06-23 08:22:00,63.7,63.0,30.01,North,-999,-999.0,-999.0,97,0.00,,,0.00,tws,2013-06-23 12:22:00,
2013-06-23 08:27:00,64.3,63.6,30.02,North,-999,-999.0,-999.0,97,0.00,,,0.00,tws,2013-06-23 12:27:00,
2013-06-23 08:32:00,65.4,64.6,30.02,North,-999,-999.0,-999.0,97,0.00,,,0.00,tws,2013-06-23 12:32:00,
2013-06-23 08:37:00,66.0,65.1,30.02,North,-999,-999.0,-999.0,96,0.00,,,0.00,tws,2013-06-23 12:37:00,
2013-06-23 08:42:00,66.2,65.1,30.02,North,-999,-999.0,-999.0,96,0.00,,,0.00,tws,2013-06-23 12:42:00,
2013-06-23 08:47:00,66.5,65.5,30.02,North,-999,-999.0,-999.0,96,0.00,,,0.00,tws,2013-06-23 12:47:00,
2013-06-23 08:52:00,66.9,65.7,30.02,North,-999,-999.0,-999.0,96,0.00,,,0.00,tws,2013-06-23 12:52:00,
2013-06-23 08:57:00,67.3,65.9,30.02,North,-999,-999.0,-999.0,95,0.00,,,0.00,tws,2013-06-23 12:57:00,
2013-06-23 09:02:00,67.6,66.2,30.02,North,-999,-999.0,-999.0,95,0.00,,,0.00,tws,2013-06-23 13:02:00,
2013-06-23 09:07:00,68.0,66.4,30.02,North,-999,-999.0,-999.0,94,0.00,,,0.00,tws,2013-06-23 13:07:00,
2013-06-23 09:12:00,68.3,66.4,30.02,North,-999,-999.0,-999.0,93,0.00,,,0.00,tws,2013-06-23 13:12:00,
2013-06-23 09:17:00,68.6,66.7,30.02,North,-999,-999.0,-999.0,93,0.00,,,0.00,tws,2013-06-23 13:17:00,
2013-06-23 09:22:00,68.9,66.9,30.02,North,-999,-999.0,-999.0,93,0.00,,,0.00,tws,2013-06-23 13:22:00,
2013-06-23 09:27:00,69.1,66.9,30.02,North,-999,-999.0,-999.0,92,0.00,,,0.00,tws,2013-06-23 13:27:00,
2013-06-23 09:32:00,69.5,67.1,30.02,North,-999,-999.0,-999.0,91,0.00,,,0.00,tws,2013-06-23 13:32:00,
2013-06-23 09:37:00,69.8,67.2,30.02,North,-999,-999.0,-999.0,91,0.00,,,0.00,tws,2013-06-23 13:37:00,
2013-06-23 09:42:00,70.0,67.2,30.02,North,-999,-999.0,-999.0,90,0.00,,,0.00,tws,2013-06-23 13:42:00,
2013-06-23 09:47:00,70.4,67.2,30.02,North,-999,-999.0,-999.0,89,0.00,,,0.00,tws,2013-06-23 13:47:00,
2013-06-23 09:52:00,70.7,67.2,30.02,North,-999,-999.0,-999.0,88,0.00,,,0.00,tws,2013-06-23 13:52:00,
2013-06-23 09:57:00,71.0,66.8,30.02,North,-999,-999.0,-999.0,86,0.00,,,0.00,tws,2013-06-23 13:57:00,
2013-06-23 10:02:00,71.3,66.3,30.02,North,-999,-999.0,-999.0,84,0.00,,,0.00,tws,2013-06-23 14:02:00,
2013-06-23 10:12:00,71.8,67.1,30.02,North,-999,-999.0,-999.0,85,0.00,,,0.00,tws,2013-06-23 14:12:00,
2013-06-23 10:17:00,72.0,67.1,30.02,North,-999,-999.0,-999.0,84,0.00,,,0.00,tws,2013-06-23 14:17:00,
2013-06-23 10:22:00,72.2,66.5,30.02,North,-999,-999.0,-999.0,82,0.00,,,0.00,tws,2013-06-23 14:22:00,
2013-06-23 10:32:00,72.3,66.4,30.02,North,-999,-999.0,-999.0,81,0.00,,,0.00,tws,2013-06-23 14:32:00,
2013-06-23 10:37:00,72.3,65.9,30.02,North,-999,-999.0,-999.0,80,0.00,,,0.00,tws,2013-06-23 14:37:00,
2013-06-23 10:42:00,72.4,66.2,30.02,North,-999,-999.0,-999.0,80,0.00,,,0.00,tws,2013-06-23 14:42:00,
2013-06-23 10:47:00,72.7,66.5,30.02,North,-999,-999.0,-999.0,80,0.00,,,0.00,tws,2013-06-23 14:47:00,
2013-06-23 10:52:00,73.1,66.4,30.02,North,-999,-999.0,-999.0,79,0.00,,,0.00,tws,2013-06-23 14:52:00,
2013-06-23 10:57:00,73.5,65.4,30.02,North,-999,-999.0,-999.0,75,0.00,,,0.00,tws,2013-06-23 14:57:00,
2013-06-23 11:02:00,74.1,65.2,30.02,North,-999,-999.0,-999.0,73,0.00,,,0.00,tws,2013-06-23 15:02:00,
2013-06-23 11:12:00,74.9,65.7,30.02,North,-999,-999.0,-999.0,72,0.00,,,0.00,tws,2013-06-23 15:12:00,
2013-06-23 11:22:00,74.1,65.2,30.02,North,-999,-999.0,-999.0,73,0.00,,,0.00,tws,2013-06-23 15:22:00,
2013-06-23 11:27:00,73.6,65.6,30.02,North,-999,-999.0,-999.0,75,0.00,,,0.00,tws,2013-06-23 15:27:00,
2013-06-23 11:32:00,73.1,65.3,30.02,North,-999,-999.0,-999.0,76,0.00,,,0.00,tws,2013-06-23 15:32:00,
2013-06-23 11:42:00,73.4,66.9,30.02,North,-999,-999.0,-999.0,79,0.00,,,0.00,tws,2013-06-23 15:42:00,
2013-06-23 11:47:00,74.2,67.1,30.02,North,-999,-999.0,-999.0,78,0.00,,,0.00,tws,2013-06-23 15:47:00,
2013-06-23 11:52:00,74.8,67.1,30.02,North,-999,-999.0,-999.0,76,0.00,,,0.00,tws,2013-06-23 15:52:00,
2013-06-23 11:57:00,75.0,66.9,30.02,North,-999,-999.0,-999.0,75,0.00,,,0.00,tws,2013-06-23 15:57:00,
2013-06-23 12:02:00,74.9,66.6,30.02,North,-999,-999.0,-999.0,75,0.00,,,0.00,tws,2013-06-23 16:02:00,
2013-06-23 12:12:00,75.5,67.2,30.01,North,-999,-999.0,-999.0,75,0.00,,,0.00,tws,2013-06-23 16:12:00,
2013-06-23 12:17:00,76.1,67.7,30.01,North,-999,-999.0,-999.0,74,0.00,,,0.00,tws,2013-06-23 16:17:00,
2013-06-23 12:22:00,76.7,68.4,30.01,North,-999,-999.0,-999.0,75,0.00,,,0.00,tws,2013-06-23 16:22:00,
2013-06-23 12:27:00,77.3,68.2,30.00,North,-999,-999.0,-999.0,73,0.00,,,0.00,tws,2013-06-23 16:27:00,
2013-06-23 12:32:00,77.5,68.0,30.00,North,-999,-999.0,-999.0,72,0.00,,,0.00,tws,2013-06-23 16:32:00,
2013-06-23 12:37:00,77.5,68.1,30.00,North,-999,-999.0,-999.0,72,0.00,,,0.00,tws,2013-06-23 16:37:00,
2013-06-23 12:42:00,78.0,68.3,30.00,North,-999,-999.0,-999.0,71,0.00,,,0.00,tws,2013-06-23 16:42:00,
2013-06-23 12:47:00,78.6,69.1,30.00,North,-999,-999.0,-999.0,72,0.00,,,0.00,tws,2013-06-23 16:47:00,
2013-06-23 12:52:00,78.9,68.8,30.00,North,-999,-999.0,-999.0,70,0.00,,,0.00,tws,2013-06-23 16:52:00,
2013-06-23 12:57:00,78.5,68.2,30.00,North,-999,-999.0,-999.0,70,0.00,,,0.00,tws,2013-06-23 16:57:00,
2013-06-23 13:02:00,77.9,67.6,30.00,North,-999,-999.0,-999.0,70,0.00,,,0.00,tws,2013-06-23 17:02:00,
2013-06-23 13:07:00,76.8,65.8,30.00,North,-999,-999.0,-999.0,68,0.00,,,0.00,tws,2013-06-23 17:07:00,
2013-06-23 13:12:00,76.2,66.4,30.00,North,-999,-999.0,-999.0,71,0.00,,,0.00,tws,2013-06-23 17:12:00,
2013-06-23 13:17:00,75.8,66.5,29.99,North,-999,-999.0,-999.0,72,0.00,,,0.00,tws,2013-06-23 17:17:00,
2013-06-23 13:22:00,75.4,66.4,29.99,North,-999,-999.0,-999.0,73,0.00,,,0.00,tws,2013-06-23 17:22:00,
2013-06-23 13:27:00,75.0,66.4,29.99,North,-999,-999.0,-999.0,74,0.00,,,0.00,tws,2013-06-23 17:27:00,
2013-06-23 13:32:00,74.7,66.0,29.99,North,-999,-999.0,-999.0,74,0.00,,,0.00,tws,2013-06-23 17:32:00,
2013-06-23 13:42:00,73.7,67.8,29.99,North,-999,-999.0,-999.0,81,0.00,,,0.00,tws,2013-06-23 17:42:00,
2013-06-23 13:47:00,73.0,68.4,29.99,North,-999,-999.0,-999.0,85,0.00,,,0.00,tws,2013-06-23 17:47:00,
2013-06-23 13:52:00,72.4,69.1,29.99,North,-999,-999.0,-999.0,89,0.12,,,0.01,tws,2013-06-23 17:52:00,
2013-06-23 13:57:00,72.1,69.1,29.99,North,-999,-999.0,-999.0,90,0.00,,,0.01,tws,2013-06-23 17:57:00,
2013-06-23 14:02:00,71.8,69.0,29.98,North,-999,-999.0,-999.0,90,0.00,,,0.01,tws,2013-06-23 18:02:00,
2013-06-23 14:07:00,71.8,68.8,29.98,North,-999,-999.0,-999.0,89,0.00,,,0.01,tws,2013-06-23 18:07:00,
2013-06-23 14:12:00,71.8,67.9,29.99,North,-999,-999.0,-999.0,87,0.00,,,0.01,tws,2013-06-23 18:12:00,
2013-06-23 14:17:00,71.2,66.4,29.99,North,-999,-999.0,-999.0,84,0.00,,,0.01,tws,2013-06-23 18:17:00,
2013-06-23 14:22:00,70.8,66.1,29.99,North,-999,-999.0,-999.0,85,0.00,,,0.01,tws,2013-06-23 18:22:00,
2013-06-23 14:27:00,70.1,67.3,29.99,North,-999,-999.0,-999.0,90,0.48,,,0.05,tws,2013-06-23 18:27:00,
2013-06-23 14:32:00,69.0,67.0,30.00,North,-999,-999.0,-999.0,93,0.60,,,0.10,tws,2013-06-23 18:32:00,
2013-06-23 14:37:00,67.2,65.0,29.99,North,-999,-999.0,-999.0,92,0.72,,,0.16,tws,2013-06-23 18:37:00,
2013-06-23 14:42:00,65.7,64.0,29.99,North,-999,-999.0,-999.0,94,0.72,,,0.22,tws,2013-06-23 18:42:00,
2013-06-23 14:47:00,65.0,63.8,29.99,North,-999,-999.0,-999.0,95,0.72,,,0.28,tws,2013-06-23 18:47:00,
2013-06-23 14:52:00,64.7,63.6,29.99,North,-999,-999.0,-999.0,96,0.72,,,0.34,tws,2013-06-23 18:52:00,
2013-06-23 14:57:00,64.6,63.6,29.99,North,-999,-999.0,-999.0,96,0.72,,,0.40,tws,2013-06-23 18:57:00,
2013-06-23 15:02:00,64.8,63.9,29.99,North,-999,-999.0,-999.0,96,0.72,,,0.46,tws,2013-06-23 19:02:00,
2013-06-23 15:07:00,65.0,64.2,29.98,North,-999,-999.0,-999.0,97,0.60,,,0.51,tws,2013-06-23 19:07:00,
2013-06-23 15:12:00,65.3,64.6,29.99,North,-999,-999.0,-999.0,97,0.60,,,0.56,tws,2013-06-23 19:12:00,
2013-06-23 15:17:00,65.8,65.1,29.98,North,-999,-999.0,-999.0,97,0.60,,,0.61,tws,2013-06-23 19:17:00,
2013-06-23 15:22:00,66.2,65.5,3.99,North,-999,-999.0,-999.0,97,0.48,,,0.65,tws,2013-06-23 19:22:00,
2013-06-23 15:27:00,66.7,65.9,29.98,North,-999,-999.0,-999.0,97,0.48,,,0.69,tws,2013-06-23 19:27:00,
2013-06-23 15:32:00,67.1,66.4,29.97,North,-999,-999.0,-999.0,97,0.48,,,0.73,tws,2013-06-23 19:32:00,
2013-06-23 15:37:00,67.5,66.8,29.97,North,-999,-999.0,-999.0,97,0.36,,,0.76,tws,2013-06-23 19:37:00,
2013-06-23 15:42:00,68.0,67.3,29.97,North,-999,-999.0,-999.0,97,0.24,,,0.78,tws,2013-06-23 19:42:00,
2013-06-23 15:47:00,68.3,67.6,29.97,North,-999,-999.0,-999.0,97,0.00,,,0.78,tws,2013-06-23 19:47:00,
2013-06-23 15:52:00,68.8,68.1,29.97,North,-999,-999.0,-999.0,97,0.00,,,0.78,tws,2013-06-23 19:52:00,
2013-06-23 15:57:00,69.5,68.7,29.97,North,-999,-999.0,-999.0,97,0.00,,,0.78,tws,2013-06-23 19:57:00,
2013-06-23 16:02:00,69.7,68.9,29.96,North,-999,-999.0,-999.0,97,0.00,,,0.78,tws,2013-06-23 20:02:00,
2013-06-23 16:07:00,69.6,68.7,29.96,North,-999,-999.0,-999.0,97,0.00,,,0.78,tws,2013-06-23 20:07:00,
2013-06-23 16:12:00,69.4,68.6,29.96,North,-999,-999.0,-999.0,97,0.00,,,0.78,tws,2013-06-23 20:12:00,
2013-06-23 16:17:00,69.5,68.6,29.96,North,-999,-999.0,-999.0,96,0.00,,,0.78,tws,2013-06-23 20:17:00,
2013-06-23 16:22:00,69.6,68.8,29.96,North,-999,-999.0,-999.0,97,0.00,,,0.78,tws,2013-06-23 20:22:00,
2013-06-23 16:27:00,69.6,68.7,29.96,North,-999,-999.0,-999.0,96,0.00,,,0.78,tws,2013-06-23 20:27:00,
2013-06-23 16:32:00,69.5,68.6,29.96,North,-999,-999.0,-999.0,97,0.00,,,0.78,tws,2013-06-23 20:32:00,
2013-06-23 16:37:00,70.0,69.1,29.96,North,-999,-999.0,-999.0,97,0.00,,,0.78,tws,2013-06-23 20:37:00,
2013-06-23 16:42:00,70.1,69.2,29.96,North,-999,-999.0,-999.0,97,0.00,,,0.78,tws,2013-06-23 20:42:00,
2013-06-23 16:47:00,70.2,69.3,29.96,North,-999,-999.0,-999.0,96,0.00,,,0.78,tws,2013-06-23 20:47:00,
2013-06-23 16:52:00,70.4,69.5,29.96,North,-999,-999.0,-999.0,97,0.00,,,0.78,tws,2013-06-23 20:52:00,
2013-06-23 16:57:00,70.4,69.4,29.96,North,-999,-999.0,-999.0,96,0.00,,,0.78,tws,2013-06-23 20:57:00,
2013-06-23 17:02:00,70.3,69.2,29.95,North,-999,-999.0,-999.0,96,0.00,,,0.78,tws,2013-06-23 21:02:00,
2013-06-23 17:07:00,70.3,69.1,29.96,North,-999,-999.0,-999.0,95,0.00,,,0.78,tws,2013-06-23 21:07:00,
2013-06-23 17:12:00,70.3,68.7,29.95,North,-999,-999.0,-999.0,94,0.00,,,0.78,tws,2013-06-23 21:12:00,
2013-06-23 17:17:00,70.3,68.9,29.95,North,-999,-999.0,-999.0,95,0.00,,,0.78,tws,2013-06-23 21:17:00,
2013-06-23 17:22:00,70.7,69.2,29.95,North,-999,-999.0,-999.0,95,0.00,,,0.78,tws,2013-06-23 21:22:00,
2013-06-23 17:27:00,71.1,69.7,29.95,North,-999,-999.0,-999.0,95,0.00,,,0.78,tws,2013-06-23 21:27:00,
2013-06-23 17:32:00,71.3,69.7,29.95,North,-999,-999.0,-999.0,94,0.00,,,0.78,tws,2013-06-23 21:32:00,
2013-06-23 17:37:00,71.3,69.5,29.95,North,-999,-999.0,-999.0,94,0.00,,,0.78,tws,2013-06-23 21:37:00,
2013-06-23 17:42:00,71.4,69.5,29.94,North,-999,-999.0,-999.0,93,0.00,,,0.78,tws,2013-06-23 21:42:00,
2013-06-23 17:47:00,71.7,69.6,29.94,North,-999,-999.0,-999.0,93,0.00,,,0.78,tws,2013-06-23 21:47:00,
2013-06-23 17:52:00,71.9,69.6,29.94,North,-999,-999.0,-999.0,92,0.00,,,0.78,tws,2013-06-23 21:52:00,
2013-06-23 17:57:00,72.1,69.9,29.94,North,-999,-999.0,-999.0,92,0.00,,,0.78,tws,2013-06-23 21:57:00,
2013-06-23 18:02:00,72.9,70.2,29.94,North,-999,-999.0,-999.0,91,0.00,,,0.78,tws,2013-06-23 22:02:00,
2013-06-23 18:07:00,73.4,70.4,29.94,North,-999,-999.0,-999.0,90,0.00,,,0.78,tws,2013-06-23 22:07:00,
2013-06-23 18:12:00,73.7,70.6,29.94,North,-999,-999.0,-999.0,89,0.00,,,0.78,tws,2013-06-23 22:12:00,
2013-06-23 18:17:00,74.0,70.5,29.94,North,-999,-999.0,-999.0,88,0.00,,,0.78,tws,2013-06-23 22:17:00,
2013-06-23 18:22:00,73.9,69.0,29.94,North,-999,-999.0,-999.0,84,0.00,,,0.78,tws,2013-06-23 22:22:00,
2013-06-23 18:27:00,73.6,69.4,29.95,North,-999,-999.0,-999.0,86,0.00,,,0.78,tws,2013-06-23 22:27:00,
2013-06-23 18:32:00,73.0,69.0,29.95,North,-999,-999.0,-999.0,87,0.00,,,0.78,tws,2013-06-23 22:32:00,
2013-06-23 18:37:00,72.4,68.7,29.95,North,-999,-999.0,-999.0,87,0.00,,,0.78,tws,2013-06-23 22:37:00,
2013-06-23 18:42:00,71.9,68.4,29.95,North,-999,-999.0,-999.0,88,0.00,,,0.78,tws,2013-06-23 22:42:00,
2013-06-23 18:47:00,71.6,68.3,29.95,North,-999,-999.0,-999.0,89,0.00,,,0.78,tws,2013-06-23 22:47:00,
2013-06-23 18:52:00,71.4,68.6,29.95,North,-999,-999.0,-999.0,90,0.00,,,0.78,tws,2013-06-23 22:52:00,
2013-06-23 18:57:00,71.4,68.8,29.95,North,-999,-999.0,-999.0,91,0.00,,,0.78,tws,2013-06-23 22:57:00,
2013-06-23 19:02:00,71.5,69.1,29.95,North,-999,-999.0,-999.0,92,0.00,,,0.78,tws,2013-06-23 23:02:00,
2013-06-23 19:07:00,71.6,69.3,29.95,North,-999,-999.0,-999.0,92,0.00,,,0.78,tws,2013-06-23 23:07:00,
2013-06-23 19:12:00,71.6,69.5,29.95,North,-999,-999.0,-999.0,93,0.00,,,0.78,tws,2013-06-23 23:12:00,
2013-06-23 19:17:00,71.5,69.6,29.95,North,-999,-999.0,-999.0,93,0.00,,,0.78,tws,2013-06-23 23:17:00,
2013-06-23 19:22:00,71.4,69.5,29.95,North,-999,-999.0,-999.0,93,0.00,,,0.78,tws,2013-06-23 23:22:00,
2013-06-23 19:27:00,71.2,69.0,29.95,North,-999,-999.0,-999.0,92,0.00,,,0.78,tws,2013-06-23 23:27:00,
2013-06-23 19:32:00,70.9,68.6,29.95,North,-999,-999.0,-999.0,92,0.00,,,0.78,tws,2013-06-23 23:32:00,
2013-06-23 19:37:00,70.7,68.6,29.95,North,-999,-999.0,-999.0,93,0.00,,,0.78,tws,2013-06-23 23:37:00,
2013-06-23 19:42:00,70.4,68.2,29.95,North,-999,-999.0,-999.0,92,0.00,,,0.78,tws,2013-06-23 23:42:00,
2013-06-23 19:47:00,70.2,67.9,29.95,North,-999,-999.0,-999.0,92,0.00,,,0.78,tws,2013-06-23 23:47:00,
2013-06-23 19:52:00,70.0,67.7,29.95,North,-999,-999.0,-999.0,92,0.00,,,0.78,tws,2013-06-23 23:52:00,
2013-06-23 19:57:00,69.8,67.3,29.95,North,-999,-999.0,-999.0,91,0.00,,,0.78,tws,2013-06-23 23:57:00,
2013-06-23 20:02:00,69.6,67.4,29.96,North,-999,-999.0,-999.0,92,0.00,,,0.78,tws,2013-06-24 00:02:00,
2013-06-23 20:07:00,69.4,67.2,29.95,North,-999,-999.0,-999.0,92,0.00,,,0.78,tws,2013-06-24 00:07:00,
2013-06-23 20:12:00,69.2,67.1,29.96,North,-999,-999.0,-999.0,92,0.00,,,0.78,tws,2013-06-24 00:12:00,
2013-06-23 20:17:00,69.1,67.1,29.96,North,-999,-999.0,-999.0,93,0.00,,,0.78,tws,2013-06-24 00:17:00,
2013-06-23 20:22:00,68.9,67.0,29.97,North,-999,-999.0,-999.0,93,0.00,,,0.78,tws,2013-06-24 00:22:00,
2013-06-23 20:27:00,68.7,66.9,29.97,North,-999,-999.0,-999.0,93,0.00,,,0.78,tws,2013-06-24 00:27:00,
2013-06-23 20:32:00,68.5,66.8,29.96,North,-999,-999.0,-999.0,94,0.00,,,0.78,tws,2013-06-24 00:32:00,
2013-06-23 20:37:00,68.4,66.6,29.96,North,-999,-999.0,-999.0,94,0.00,,,0.78,tws,2013-06-24 00:37:00,
2013-06-23 20:42:00,68.3,66.6,29.96,North,-999,-999.0,-999.0,94,0.00,,,0.78,tws,2013-06-24 00:42:00,
2013-06-23 20:47:00,68.2,66.5,29.97,North,-999,-999.0,-999.0,94,0.00,,,0.78,tws,2013-06-24 00:47:00,
2013-06-23 20:52:00,68.0,66.3,29.97,North,-999,-999.0,-999.0,94,0.00,,,0.78,tws,2013-06-24 00:52:00,
2013-06-23 20:57:00,67.8,66.3,29.97,North,-999,-999.0,-999.0,94,0.00,,,0.78,tws,2013-06-24 00:57:00,
2013-06-23 21:02:00,67.8,66.3,29.97,North,-999,-999.0,-999.0,95,0.00,,,0.78,tws,2013-06-24 01:02:00,
2013-06-23 21:07:00,67.8,66.4,29.97,North,-999,-999.0,-999.0,95,0.00,,,0.78,tws,2013-06-24 01:07:00,
2013-06-23 21:12:00,67.8,66.6,29.97,North,-999,-999.0,-999.0,95,0.00,,,0.78,tws,2013-06-24 01:12:00,
2013-06-23 21:17:00,68.0,66.8,29.97,North,-999,-999.0,-999.0,96,0.00,,,0.78,tws,2013-06-24 01:17:00,
2013-06-23 21:22:00,68.1,66.9,29.97,North,-999,-999.0,-999.0,96,0.00,,,0.78,tws,2013-06-24 01:22:00,
2013-06-23 21:27:00,68.3,67.1,29.97,North,-999,-999.0,-999.0,96,0.00,,,0.78,tws,2013-06-24 01:27:00,
2013-06-23 21:32:00,68.5,67.2,29.97,North,-999,-999.0,-999.0,95,0.00,,,0.78,tws,2013-06-24 01:32:00,
2013-06-23 21:37:00,68.6,67.3,29.97,North,-999,-999.0,-999.0,95,0.00,,,0.78,tws,2013-06-24 01:37:00,
2013-06-23 21:42:00,68.6,67.3,29.97,North,-999,-999.0,-999.0,95,0.00,,,0.78,tws,2013-06-24 01:42:00,
2013-06-23 21:47:00,68.4,67.1,29.98,North,-999,-999.0,-999.0,95,0.00,,,0.78,tws,2013-06-24 01:47:00,
2013-06-23 21:52:00,68.3,67.0,29.98,North,-999,-999.0,-999.0,95,0.00,,,0.78,tws,2013-06-24 01:52:00,
2013-06-23 21:57:00,68.2,66.9,29.98,North,-999,-999.0,-999.0,95,0.00,,,0.78,tws,2013-06-24 01:57:00,
2013-06-23 22:02:00,68.1,66.9,29.99,North,-999,-999.0,-999.0,95,0.00,,,0.78,tws,2013-06-24 02:02:00,
2013-06-23 22:07:00,68.1,66.9,29.99,North,-999,-999.0,-999.0,95,0.00,,,0.78,tws,2013-06-24 02:07:00,
2013-06-23 22:12:00,68.1,66.9,29.99,North,-999,-999.0,-999.0,96,0.00,,,0.78,tws,2013-06-24 02:12:00,
2013-06-23 22:17:00,68.0,66.8,29.99,North,-999,-999.0,-999.0,96,0.00,,,0.78,tws,2013-06-24 02:17:00,
2013-06-23 22:22:00,67.9,66.7,29.99,North,-999,-999.0,-999.0,96,0.00,,,0.78,tws,2013-06-24 02:22:00,
2013-06-23 22:27:00,67.8,66.7,29.99,North,-999,-999.0,-999.0,96,0.00,,,0.78,tws,2013-06-24 02:27:00,
2013-06-23 22:32:00,67.7,66.7,29.99,North,-999,-999.0,-999.0,96,0.00,,,0.78,tws,2013-06-24 02:32:00,
2013-06-23 22:37:00,67.7,66.5,30.00,North,-999,-999.0,-999.0,96,0.00,,,0.78,tws,2013-06-24 02:37:00,
2013-06-23 22:42:00,67.6,66.5,30.00,North,-999,-999.0,-999.0,96,0.00,,,0.78,tws,2013-06-24 02:42:00,
2013-06-23 22:47:00,67.6,66.4,30.00,North,-999,-999.0,-999.0,96,0.00,,,0.78,tws,2013-06-24 02:47:00,
2013-06-23 22:52:00,67.5,66.4,30.00,North,-999,-999.0,-999.0,96,0.00,,,0.78,tws,2013-06-24 02:52:00,
2013-06-23 22:57:00,67.4,66.4,30.00,North,-999,-999.0,-999.0,96,0.00,,,0.78,tws,2013-06-24 02:57:00,
2013-06-23 23:02:00,67.3,66.3,30.00,North,-999,-999.0,-999.0,96,0.00,,,0.78,tws,2013-06-24 03:02:00,
2013-06-23 23:07:00,67.3,66.3,30.00,North,-999,-999.0,-999.0,96,0.00,,,0.78,tws,2013-06-24 03:07:00,
2013-06-23 23:12:00,67.3,66.2,30.00,North,-999,-999.0,-999.0,96,0.00,,,0.78,tws,2013-06-24 03:12:00,
2013-06-23 23:17:00,67.1,66.0,30.00,North,-999,-999.0,-999.0,96,0.00,,,0.78,tws,2013-06-24 03:17:00,
2013-06-23 23:22:00,67.1,66.0,30.00,North,-999,-999.0,-999.0,96,0.00,,,0.78,tws,2013-06-24 03:22:00,
2013-06-23 23:27:00,67.0,65.9,30.00,North,-999,-999.0,-999.0,96,0.00,,,0.78,tws,2013-06-24 03:27:00,
2013-06-23 23:32:00,66.9,65.8,30.00,North,-999,-999.0,-999.0,96,0.00,,,0.78,tws,2013-06-24 03:32:00,
2013-06-23 23:37:00,66.8,65.7,30.01,North,-999,-999.0,-999.0,96,0.00,,,0.78,tws,2013-06-24 03:37:00,
2013-06-23 23:42:00,66.8,65.7,30.01,North,-999,-999.0,-999.0,96,0.00,,,0.78,tws,2013-06-24 03:42:00,
2013-06-23 23:47:00,66.6,65.6,30.01,North,-999,-999.0,-999.0,96,0.00,,,0.78,tws,2013-06-24 03:47:00,
2013-06-23 23:52:00,66.5,65.4,30.01,North,-999,-999.0,-999.0,96,0.00,,,0.78,tws,2013-06-24 03:52:00,
2013-06-23 23:57:00,66.5,65.5,30.01,North,-999,-999.0,-999.0,96,0.00,,,0.78,tws,2013-06-24 03:57:00,